Winfield, KS

2:59 PM CST on February 26, 2017 (GMT -0600)
Strother

Weather History for KWLD - October, 2012

Change the Weather History Date:

Saturday, October 13, 2012

  Actual Average Record
Temperature  
Mean Temperature 70 °F -  
Max Temperature 77 °F 69 °F 84 °F (2015)
Min Temperature 64 °F 47 °F 35 °F (2006)
Cooling Degree Days 4    
Growing Degree Days 20 (Base 50)    
Moisture  
Dew Point 67 °F    
Average Humidity 90    
Maximum Humidity 100    
Minimum Humidity 79    
Precipitation  
Precipitation 0.11 in - - ()
Sea Level Pressure  
Sea Level Pressure 29.81 in    
Wind  
Wind Speed 15 mph (South)    
Max Wind Speed 22 mph    
Max Gust Speed 33 mph    
Visibility 8 miles    
Events Rain , Thunderstorm    
Averages and records for this station are not official NWS values.
T = Trace of Precipitation, MM = Missing Value Source: NWS Daily Summary

Daily Weather History Graph

Daily Weather History Graph

Search for Another Location

Airport or City:

Trip Planner

Search our weather history database for the weather conditions in past years. The results will help you decide how hot, cold, wet, or windy it might be!

Date:

Astronomy

Oct. 13, 2012 Rise Set
Actual Time 7:34 AM CDT 6:53 PM CDT
Civil Twilight 7:08 AM CDT 7:19 PM CDT
Nautical Twilight 6:38 AM CDT 7:49 PM CDT
Astronomical Twilight 6:08 AM CDT 8:19 PM CDT
Moon 5:27 AM CDT (10/13) 5:36 PM CDT (10/13)
Length of Visible Light 12h 11m
Length of Day
11h 18m
Waning Crescent, 5% of the Moon is Illuminated
Oct 13
Waning Crescent
Oct 15
New
Oct 21
First Quarter
Oct 29
Full
Nov 6
Last Quarter

Hourly Weather History & Observations

Time (CDT) Temp. Dew Point Humidity Pressure Visibility Wind Dir Wind Speed Gust Speed Precip Events Conditions
12:54 AM 64.9 °F 64.9 °F 100% 29.97 in 9.0 mi SE 11.5 mph - N/A   Clear
1:54 AM 66.0 °F 64.9 °F 96% 29.96 in 8.0 mi SSE 10.4 mph - N/A   Clear
2:54 AM 66.0 °F 64.9 °F 96% 29.95 in 8.0 mi SSE 10.4 mph - N/A   Clear
3:54 AM 70.0 °F 66.9 °F 90% 29.92 in 8.0 mi South 18.4 mph 24.2 mph N/A   Clear
4:54 AM 70.0 °F 66.9 °F 90% 29.91 in 9.0 mi South 19.6 mph 26.5 mph N/A   Clear
5:54 AM 70.0 °F 66.9 °F 90% 29.89 in 9.0 mi South 17.3 mph 25.3 mph N/A   Scattered Clouds
7:05 AM 69.8 °F 66.2 °F 88% 29.93 in 8.0 mi South 18.4 mph 24.2 mph 0.00 in Rain , Thunderstorm Light Rain
7:54 AM 68.0 °F 66.9 °F 96% 29.90 in 7.0 mi South 15.0 mph 24.2 mph 0.02 in Rain , Thunderstorm Light Rain
8:17 AM 69.8 °F 66.2 °F 88% 29.92 in 6.0 mi South 12.7 mph 20.7 mph 0.05 in Rain , Thunderstorm Light Thunderstorms and Rain
8:47 AM 69.8 °F 66.2 °F 88% 29.91 in 6.0 mi South 13.8 mph - 0.06 in   Overcast
9:54 AM 70.0 °F 68.0 °F 93% 29.87 in 7.0 mi South 16.1 mph - N/A   Overcast
10:54 AM 71.1 °F 68.0 °F 90% 29.83 in 8.0 mi South 15.0 mph 23.0 mph 0.00 in   Overcast
11:26 AM 69.8 °F 68.0 °F 94% 29.86 in 5.0 mi SSE 15.0 mph - 0.03 in Rain Rain
11:54 AM 70.0 °F 68.0 °F 93% 29.83 in 7.0 mi South 18.4 mph 24.2 mph 0.03 in   Overcast
12:54 PM 71.1 °F 69.1 °F 93% 29.79 in 8.0 mi South 20.7 mph - 0.01 in   Overcast
1:02 PM 71.6 °F 69.8 °F 94% 29.81 in 5.0 mi South 17.3 mph 27.6 mph 0.03 in Rain , Thunderstorm Light Thunderstorms and Rain
1:37 PM 71.6 °F 69.8 °F 94% 29.79 in 9.0 mi South 17.3 mph 26.5 mph 0.05 in Rain Light Rain
1:54 PM 73.0 °F 70.0 °F 90% 29.75 in 9.0 mi South 19.6 mph 27.6 mph 0.05 in   Overcast
2:54 PM 75.0 °F 71.1 °F 87% 29.71 in 10.0 mi South 20.7 mph 31.1 mph 0.00 in   Scattered Clouds
3:54 PM 75.0 °F 68.0 °F 79% 29.68 in 10.0 mi South 21.9 mph 33.4 mph N/A   Scattered Clouds
4:11 PM 73.4 °F 69.8 °F 88% 29.71 in 10.0 mi South 17.3 mph 31.1 mph N/A   Mostly Cloudy
4:54 PM 73.0 °F 70.0 °F 90% 29.65 in 10.0 mi South 21.9 mph 27.6 mph N/A   Mostly Cloudy
5:02 PM 73.4 °F 69.8 °F 88% 29.68 in 10.0 mi South 19.6 mph 28.8 mph N/A   Scattered Clouds
5:54 PM 73.9 °F 70.0 °F 87% 29.62 in 10.0 mi South 20.7 mph 28.8 mph N/A   Scattered Clouds
6:37 PM 71.6 °F 66.2 °F 83% 29.63 in 10.0 mi South 17.3 mph 26.5 mph N/A   Scattered Clouds
7:54 PM 66.9 °F 62.1 °F 84% 29.67 in 10.0 mi South 16.1 mph - N/A   Clear
9:54 PM 64.9 °F 63.0 °F 93% 29.64 in 10.0 mi South 10.4 mph - N/A   Clear